| time (UTC) | temp F | wind direction | speed knots | gust knots | rain 1hr in | rain 24hr in | rain mn in | humidity % | barometer mb |
| 20260505071546 | 66 | 209 | 0.0 | 7.8 | 0.00 | 0.00 | 0.00 | 72 | 1004.8 |
| 20260505070042 | 66 | 205 | 1.7 | 5.2 | 0.00 | 0.00 | 0.00 | 72 | 1005.0 |
| 20260505064537 | 66 | 149 | 1.7 | 7.0 | 0.00 | 0.00 | 0.00 | 72 | 1004.9 |
| 20260505063039 | 66 | 187 | 1.7 | 7.0 | 0.00 | 0.00 | 0.00 | 72 | 1004.8 |
| 20260505061534 | 66 | 182 | 1.7 | 7.0 | 0.00 | 0.00 | 0.00 | 72 | 1004.5 |
| 20260505060053 | 66 | 189 | 2.6 | 7.8 | 0.00 | 0.00 | 0.00 | 72 | 1004.7 |
| 20260505054536 | 65 | 182 | 1.7 | 7.8 | 0.00 | 0.00 | 0.00 | 73 | 1004.7 |
| 20260505053039 | 65 | 189 | 0.9 | 5.2 | 0.00 | 0.00 | 0.00 | 73 | 1005.0 |
| 20260505051537 | 65 | 208 | 0.9 | 3.5 | 0.00 | 0.00 | 0.00 | 73 | 1005.2 |
| 20260505041549 | 66 | 178 | 0.9 | 3.5 | 0.00 | 0.00 | 0.00 | 70 | 1005.4 |
| 20260505040034 | 67 | 0 | 0.0 | 0.9 | 0.00 | 0.00 | 0.00 | 68 | 1005.6 |
| 20260505034537 | 69 | 0 | 0.0 | 0.9 | 0.00 | 0.00 | 0.00 | 66 | 1005.8 |
| 20260505033038 | 70 | 0 | 0.0 | 5.2 | 0.00 | 0.00 | 0.00 | 65 | 1005.6 |
| 20260505031538 | 71 | 186 | 1.7 | 9.6 | 0.00 | 0.00 | 0.00 | 63 | 1005.4 |
| 20260505030044 | 71 | 184 | 2.6 | 9.6 | 0.00 | 0.00 | 0.00 | 62 | 1005.2 |
| 20260505024538 | 71 | 163 | 3.5 | 9.6 | 0.00 | 0.00 | 0.00 | 62 | 1005.2 |
| 20260505023037 | 71 | 170 | 1.7 | 7.0 | 0.00 | 0.00 | 0.00 | 62 | 1005.2 |
| 20260505021536 | 71 | 190 | 0.9 | 11.3 | 0.00 | 0.00 | 0.00 | 61 | 1004.9 |
| 20260505020041 | 71 | 192 | 0.9 | 7.0 | 0.00 | 0.00 | 0.00 | 61 | 1004.6 |
| 20260505014559 | 72 | 195 | 1.7 | 6.1 | 0.00 | 0.00 | 0.00 | 60 | 1004.7 |
| 20260505013047 | 72 | 166 | 0.9 | 4.3 | 0.00 | 0.00 | 0.00 | 60 | 1004.4 |
| 20260505011540 | 73 | 182 | 0.9 | 6.1 | 0.00 | 0.00 | 0.00 | 58 | 1004.4 |
| 20260505010048 | 73 | 236 | 0.0 | 4.3 | 0.00 | 0.00 | 0.00 | 57 | 1004.1 |
| 20260505004546 | 74 | 232 | 1.7 | 6.1 | 0.00 | 0.00 | 0.00 | 56 | 1003.8 |
| 20260505003053 | 75 | 173 | 1.7 | 6.1 | 0.00 | 0.00 | 0.00 | 56 | 1003.7 |
| 20260505001534 | 76 | 171 | 1.7 | 7.0 | 0.00 | 0.00 | 0.00 | 56 | 1003.8 |
| 20260505000037 | 76 | 200 | 1.7 | 7.8 | 0.00 | 0.00 | 0.00 | 55 | 1003.8 |
| 20260504234535 | 77 | 142 | 1.7 | 11.3 | 0.00 | 0.00 | 0.00 | 54 | 1003.7 |
| 20260504233037 | 77 | 174 | 1.7 | 7.0 | 0.00 | 0.00 | 0.00 | 54 | 1003.8 |
| 20260504231534 | 78 | 201 | 3.5 | 9.6 | 0.00 | 0.00 | 0.00 | 53 | 1004.0 |
| 20260504230037 | 78 | 240 | 3.5 | 10.4 | 0.00 | 0.00 | 0.00 | 52 | 1004.0 |
| 20260504224537 | 79 | 231 | 2.6 | 10.4 | 0.00 | 0.00 | 0.00 | 51 | 1004.0 |
| 20260504223055 | 79 | 180 | 4.3 | 15.6 | 0.00 | 0.00 | 0.00 | 52 | 1004.2 |
| 20260504221540 | 78 | 144 | 4.3 | 10.4 | 0.00 | 0.00 | 0.00 | 53 | 1004.2 |
| 20260504220037 | 78 | 192 | 1.7 | 15.6 | 0.00 | 0.00 | 0.00 | 53 | 1004.3 |
| 20260504214534 | 78 | 172 | 2.6 | 9.6 | 0.00 | 0.00 | 0.00 | 55 | 1004.3 |
| 20260504213032 | 78 | 25 | 4.3 | 11.3 | 0.00 | 0.00 | 0.00 | 52 | 1004.2 |
| 20260504211603 | 78 | 160 | 2.6 | 13.0 | 0.00 | 0.00 | 0.00 | 52 | 1004.3 |
| 20260504210044 | 79 | 202 | 5.2 | 14.8 | 0.00 | 0.00 | 0.00 | 50 | 1004.4 |
| 20260504204538 | 80 | 168 | 2.6 | 13.0 | 0.00 | 0.00 | 0.00 | 51 | 1004.6 |
| 20260504203037 | 79 | 157 | 6.1 | 16.5 | 0.00 | 0.00 | 0.00 | 50 | 1004.8 |
| 20260504201538 | 79 | 161 | 4.3 | 14.8 | 0.00 | 0.00 | 0.00 | 51 | 1004.9 |
| 20260504200037 | 79 | 184 | 3.5 | 13.9 | 0.00 | 0.00 | 0.00 | 49 | 1005.0 |
| 20260504194537 | 80 | 173 | 2.6 | 13.9 | 0.00 | 0.00 | 0.00 | 51 | 1005.3 |
| 20260504193035 | 80 | 182 | 4.3 | 14.8 | 0.00 | 0.00 | 0.00 | 51 | 1005.3 |
| 20260504191537 | 80 | 140 | 4.3 | 12.2 | 0.00 | 0.00 | 0.00 | 49 | 1005.6 |
| 20260504190041 | 79 | 152 | 5.2 | 15.6 | 0.00 | 0.00 | 0.00 | 50 | 1005.5 |
| 20260504184546 | 79 | 148 | 1.7 | 14.8 | 0.00 | 0.00 | 0.00 | 53 | 1005.5 |
| 20260504183037 | 79 | 84 | 2.6 | 9.6 | 0.00 | 0.00 | 0.00 | 52 | 1005.8 |
| 20260504181536 | 79 | 107 | 3.5 | 11.3 | 0.00 | 0.00 | 0.00 | 53 | 1005.9 |
| 20260504180034 | 79 | 142 | 3.5 | 12.2 | 0.00 | 0.00 | 0.00 | 53 | 1005.9 |
| 20260504174537 | 78 | 241 | 1.7 | 11.3 | 0.00 | 0.00 | 0.00 | 56 | 1005.9 |
| 20260504173037 | 78 | 157 | 2.6 | 16.5 | 0.00 | 0.00 | 0.00 | 52 | 1006.0 |
| 20260504171540 | 77 | 181 | 2.6 | 13.9 | 0.00 | 0.00 | 0.00 | 54 | 1005.8 |
| 20260504081541 | 65 | 196 | 2.6 | 8.7 | 0.00 | 0.00 | 0.00 | 60 | 1008.5 |